Boise, ID

3:55 PM MDT on June 26, 2017 (GMT -0600)
Boise Air Term

Weather History for KBOI - July, 2013

Change the Weather History Date:

Thursday, July 25, 2013

  Actual Average Record
Temperature  
Mean Temperature 86 °F 77 °F  
Max Temperature 102 °F 93 °F 109 °F (1891)
Min Temperature 70 °F 62 °F 46 °F (1993)
Degree Days  
Heating Degree Days 0 0  
Month to date heating degree days 0 4  
Since 1 June heating degree days 35 68  
Since 1 July heating degree days 0 4  
Cooling Degree Days 21 13  
Month to date cooling degree days 427 265  
Year to date cooling degree days 665 448  
Since 1 June cooling degree days 618 404  
Growing Degree Days 36 (Base 50)    
Moisture  
Dew Point 39 °F    
Average Humidity 25    
Maximum Humidity 41    
Minimum Humidity 8    
Precipitation  
Precipitation 0.00 in 0.01 in 0.50 in (1913)
Month to date precipitation 0.13 0.27  
Year to date precipitation 4.46 7.20  
Snow  
Snow 0.00 in 0.00 in 0.00 in (2006)
Month to date snowfall 0.0 0.0  
Since 1 July snowfall 0.0 0.0  
Snow Depth 0.00 in    
Sea Level Pressure  
Sea Level Pressure 29.90 in    
Wind  
Wind Speed 7 mph (WNW)    
Max Wind Speed 20 mph    
Max Gust Speed 25 mph    
Visibility 10 miles    
Events      
T = Trace of Precipitation, MM = Missing Value Source: NWS Daily Summary

Daily Weather History Graph

Daily Weather History Graph

Search for Another Location

Airport or City:

Trip Planner

Search our weather history database for the weather conditions in past years. The results will help you decide how hot, cold, wet, or windy it might be!

Date:

Astronomy

Jul. 25, 2013 Rise Set
Actual Time 6:27 AM MDT 9:14 PM MDT
Civil Twilight 5:53 AM MDT 9:48 PM MDT
Nautical Twilight 5:11 AM MDT 10:30 PM MDT
Astronomical Twilight 4:22 AM MDT 11:18 PM MDT
Moon 10:48 PM MDT (7/25) 10:10 AM MDT (7/25)
Length of Visible Light 15h 54m
Length of Day
14h 47m
Waning Gibbous, 88% of the Moon is Illuminated
Jul 25
Waning Gibbous
Jul 29
Last Quarter
Aug 6
New
Aug 14
First Quarter
Aug 20
Full

Hourly Weather History & Observations

Time (MDT) Temp. Dew Point Humidity Pressure Visibility Wind Dir Wind Speed Gust Speed Precip Events Conditions
12:53 AM 79.0 °F 43.0 °F 28% 29.86 in 10.0 mi Calm Calm - N/A   Clear
1:53 AM 77.0 °F 43.0 °F 30% 29.87 in 10.0 mi SE 4.6 mph - N/A   Clear
2:53 AM 75.0 °F 43.0 °F 32% 29.87 in 10.0 mi SSE 3.5 mph - N/A   Clear
3:53 AM 73.0 °F 43.0 °F 34% 29.88 in 10.0 mi Calm Calm - N/A   Clear
4:53 AM 71.1 °F 43.0 °F 36% 29.89 in 10.0 mi South 3.5 mph - N/A   Clear
5:53 AM 73.0 °F 43.0 °F 34% 29.89 in 10.0 mi Calm Calm - N/A   Clear
6:53 AM 71.1 °F 44.1 °F 38% 29.90 in 10.0 mi South 3.5 mph - N/A   Clear
7:53 AM 72.0 °F 44.1 °F 37% 29.91 in 10.0 mi SSE 5.8 mph - N/A   Clear
8:53 AM 73.0 °F 48.0 °F 41% 29.94 in 10.0 mi West 6.9 mph - N/A   Clear
9:53 AM 79.0 °F 46.0 °F 31% 29.94 in 10.0 mi Calm Calm - N/A   Clear
10:53 AM 82.0 °F 48.0 °F 30% 29.94 in 10.0 mi WNW 6.9 mph - N/A   Clear
11:53 AM 86.0 °F 46.9 °F 26% 29.94 in 10.0 mi NNW 4.6 mph - N/A   Clear
12:53 PM 91.0 °F 46.9 °F 22% 29.94 in 10.0 mi WNW 10.4 mph - N/A   Clear
1:53 PM 93.9 °F 44.1 °F 18% 29.92 in 10.0 mi West 12.7 mph - N/A   Clear
2:53 PM 97.0 °F 37.0 °F 12% 29.91 in 10.0 mi WNW 15.0 mph - N/A   Clear
3:53 PM 100.0 °F 30.0 °F 9% 29.89 in 10.0 mi NW 15.0 mph 25.3 mph N/A   Clear
4:53 PM 100.9 °F 30.0 °F 8% 29.89 in 10.0 mi NW 16.1 mph - N/A   Clear
5:53 PM 100.9 °F 28.9 °F 8% 29.88 in 10.0 mi NW 12.7 mph 20.7 mph N/A   Clear
6:53 PM 99.0 °F 32.0 °F 10% 29.87 in 10.0 mi NNW 16.1 mph - N/A   Clear
7:53 PM 97.0 °F 34.0 °F 11% 29.87 in 10.0 mi NNW 9.2 mph - N/A   Clear
8:53 PM 93.0 °F 34.0 °F 12% 29.87 in 10.0 mi North 3.5 mph - N/A   Clear
9:53 PM 88.0 °F 37.0 °F 16% 29.88 in 10.0 mi Calm Calm - N/A   Clear
10:53 PM 82.9 °F 34.0 °F 17% 29.91 in 10.0 mi SE 3.5 mph - N/A   Clear
11:53 PM 80.1 °F 34.0 °F 19% 29.91 in 10.0 mi SE 3.5 mph - N/A   Clear